Weather History for Marathon, FL

Change the Weather History Date:

Monday, March 11, 2013

  Actual Average Record
Temperature  
Mean Temperature 76 °F 73 °F  
Max Temperature 81 °F 79 °F 86 °F (1997)
Min Temperature 70 °F 68 °F 53 °F (1998)
Degree Days  
Heating Degree Days 0 0  
Month to date heating degree days 19 0  
Since 1 July heating degree days 32 75  
Cooling Degree Days 11 9  
Month to date cooling degree days 31 89  
Year to date cooling degree days 626 471  
Growing Degree Days 25 (Base 50)    
Moisture  
Dew Point 59 °F    
Average Humidity 60    
Maximum Humidity 68    
Minimum Humidity 51    
Precipitation  
Precipitation 0.00 in 0.07 in 0.15 in (2008)
Month to date precipitation 0.15 0.85  
Year to date precipitation 2.53 4.67  
Snow  
Snow 0.00 in - - ()
Month to date snowfall 0.0  
Since 1 July snowfall 0.0  
Snow Depth 0.00 in    
Sea Level Pressure  
Sea Level Pressure 30.01 in    
Wind  
Wind Speed 8 mph (ESE)    
Max Wind Speed 12 mph    
Max Gust Speed 21 mph    
Visibility 10 miles    
Events      
T = Trace of Precipitation, MM = Missing Value Source: NWS Daily Summary

Daily Weather History Graph

Daily Weather History Graph

Search for Another Location

Airport:

Trip Planner

Search our weather history database for the weather conditions in past years. The results will help you decide how hot, cold, wet, or windy it might be!

Date:

Astronomy

Mar. 11, 2013 Rise Set
Actual Time 7:37 AM EDT 7:31 PM EDT
Civil Twilight 7:14 AM EDT 7:54 PM EDT
Nautical Twilight 6:47 AM EDT 8:20 PM EDT
Astronomical Twilight 6:21 AM EDT 8:47 PM EDT
Moon 7:12 AM EDT (3/11) 7:35 PM EDT (3/11)
Length of Visible Light 12h 40m
Length of Day
11h 54m
Waning Crescent, 0% of the Moon is Illuminated
Mar 11
Waning Crescent
Mar 11
New
Mar 19
First Quarter
Mar 27
Full
Apr 3
Last Quarter

Hourly Weather History & Observations

Time (EDT) Temp. Heat Index Dew Point Humidity Pressure Visibility Wind Dir Wind Speed Gust Speed Precip Events Conditions
12:53 AM 72.0 °F - 55.9 °F 57% 30.07 in 10.0 mi ESE 9.2 mph - N/A   Mostly Cloudy
1:53 AM 71.1 °F - 55.9 °F 59% 30.06 in 10.0 mi ESE 5.8 mph - N/A   Mostly Cloudy
2:53 AM 71.1 °F - 57.9 °F 63% 30.04 in 10.0 mi ESE 6.9 mph - N/A   Scattered Clouds
3:53 AM 71.1 °F - 57.0 °F 61% 30.01 in 10.0 mi East 8.1 mph 17.3 mph N/A   Mostly Cloudy
4:53 AM 71.1 °F - 55.0 °F 57% 30.00 in 10.0 mi ESE 11.5 mph 19.6 mph N/A   Clear
5:53 AM 70.0 °F - 55.0 °F 59% 29.99 in 10.0 mi East 6.9 mph - N/A   Clear
6:53 AM 70.0 °F - 55.9 °F 61% 29.99 in 10.0 mi ESE 8.1 mph - N/A   Clear
8:53 AM 73.9 °F - 59.0 °F 59% 30.03 in 10.0 mi ESE 8.1 mph - N/A   Mostly Cloudy
9:53 AM 75.0 °F - 57.9 °F 55% 30.04 in 10.0 mi ESE 8.1 mph - N/A   Clear
10:53 AM 77.0 °F - 59.0 °F 54% 30.04 in 10.0 mi ESE 9.2 mph - N/A   Partly Cloudy
11:53 AM 78.1 °F - 60.1 °F 54% 30.03 in 10.0 mi ESE 9.2 mph 16.1 mph N/A   Clear
12:53 PM 79.0 °F - 62.1 °F 56% 30.03 in 10.0 mi ESE 6.9 mph - N/A   Mostly Cloudy
1:53 PM 80.1 °F 81.2 °F 62.1 °F 54% 30.01 in 10.0 mi ESE 6.9 mph 20.7 mph N/A   Scattered Clouds
2:53 PM 75.9 °F - 62.1 °F 62% 30.01 in 10.0 mi SE 6.9 mph - N/A   Overcast
3:53 PM 80.1 °F 81.1 °F 61.0 °F 52% 29.99 in 10.0 mi Variable 5.8 mph - N/A   Clear
4:53 PM 78.1 °F - 60.1 °F 54% 29.98 in 10.0 mi SE 5.8 mph - N/A   Clear
5:53 PM 77.0 °F - 61.0 °F 58% 29.95 in 10.0 mi ESE 6.9 mph - N/A   Clear
6:53 PM 75.0 °F - 60.1 °F 60% 29.97 in 10.0 mi SE 5.8 mph - N/A   Clear
7:53 PM 73.0 °F - 61.0 °F 66% 29.96 in 10.0 mi ESE 8.1 mph - N/A   Clear
8:53 PM 73.0 °F - 62.1 °F 68% 29.96 in 10.0 mi SE 9.2 mph - N/A   Clear
9:53 PM 73.0 °F - 62.1 °F 68% 29.99 in 10.0 mi SE 9.2 mph - N/A   Clear
10:53 PM 73.0 °F - 62.1 °F 68% 30.00 in 10.0 mi SE 6.9 mph - N/A   Clear
11:53 PM 73.0 °F - 62.1 °F 68% 30.00 in 10.0 mi SE 9.2 mph - N/A   Clear